COMPLETED DISPATCHED CALLS FOR SERVICE

Welcome to the Jacksonville Sheriff’s Office Completed Dispatched Calls for Service webpage. This page displays calls for service made to the Jacksonville Sheriff's Office that have recently been completed. The data on this page is refreshed automatically.

This information is not intended to be used as official crime data. This program does not provide information about all crimes, and excludes specific incidents such as sexual assaults and child abuse.

Disclaimer: The Jacksonville Sheriff's Office makes every effort to produce and publish current and accurate information. No warranties, expressed or implied, are provided for the data herein, its use, or its interpretation. The services provided are for informational purposes only and should not be relied on for any type of legal action.

Last refreshed 10/13 16:13:49

Incident # Dispatched Block Address Signal Call Description  
191013705108 10-13 16:01 1700 E 24TH ST 13 SUSPICIOUS PERSON
191013705090 10-13 15:56 10800 HARTS RD 13 SUSPICIOUS PERSON
191013705037 10-13 15:51 4000 SUNBEAM RD 63 DISPUTE
191013705096 10-13 15:50 27TH/HAINES 1050 TRAFFIC STOP
191013705088 10-13 15:47 100 ST JOHNS RIVER 1050 TRAFFIC STOP
191013705085 10-13 15:45 5300 CAMILLE AVE 13 SUSPICIOUS PERSON
191013705069 10-13 15:37 6200 ARLINGTON EXPWY 1050 TRAFFIC STOP
191013705065 10-13 15:37 400 PECAN PARK RD 63 DISPUTE
191013705011 10-13 15:37 3500 KINGSTON ST 14R VANDALISM RESIDENCE
191013705066 10-13 15:36 100 ST JOHNS RIVER 1050 TRAFFIC STOP
191013705058 10-13 15:35 TALLADEGA RD AND SPELLMAN RD 0 13 ARMED SUSPICIOUS PERSON
191013705043 10-13 15:35 2100 HUGH EDWARDS DR 64 NOISE COMPLAINT
191013705061 10-13 15:33 E BAY ST AND MARSH ST 4 AUTO CRASH
191013705056 10-13 15:30 E 13TH ST AND PHOENIX AVE 1050 TRAFFIC STOP
191013705029 10-13 15:28 W 22ND ST AND N MAIN ST 9T THEFT (TELESERVE)
191013705026 10-13 15:28 5800 BLANDING BLVD 63 DISPUTE
191013705048 10-13 15:25 W 30TH ST AND GOLFAIR BLVD 1050 TRAFFIC STOP
191013705000 10-13 15:24 400 THOMPSON ST 9T THEFT (TELESERVE)
191013705038 10-13 15:23 12700 E BURNING TREE LN 13 SUSPICIOUS PERSON
191013705034 10-13 15:20 PLAY/UNIV 1050 TRAFFIC STOP
191013705030 10-13 15:17 BEACH BLVD AND DEAN RD 1050 TRAFFIC STOP
191013704994 10-13 15:16 3000 DUANE AVE 13 SUSPICIOUS PERSON
191013705017 10-13 15:14 8200 KONA AVE 14BP VANDALISM BUSINESS IN PROGRESS
191013705018 10-13 15:13 5400 SAN JUAN AVE 1066 CANCEL
191013704899 10-13 15:09 700 TREKKER ST 9 THEFT
191013704984 10-13 15:08 7600 BUCK HILLS CT 86T LOST PROPERTY (TELESERVE)
191013705009 10-13 15:08 2200 DELLWOOD AVE 0 63 ARMED DISPUTE
191013704966 10-13 15:02 7200 MAPLE TREE DR 9 THEFT
191013705008 10-13 15:00 1300 KING ST 3388 DISCHARGING FIREARM AT PERSON
191013704987 10-13 14:57 1500 E 30TH ST 63 DISPUTE
191013704946 10-13 14:57 11600 N SEDGEMOORE DR 64 NOISE COMPLAINT
191013705001 10-13 14:55 UNIVERSITY BLVD AND ARLINGTON EXPWY 1050 TRAFFIC STOP
191013704982 10-13 14:54 7600 GATE PKWY 63 DISPUTE
191013704998 10-13 14:54 8700 OLD PLANK RD 22 DOMESTIC
191013704973 10-13 14:53 9200 LEM TURNER RD 9J THEFT JUST OCCURRED
191013704995 10-13 14:53 5100 N PEARL ST 64 NOISE COMPLAINT
191013704937 10-13 14:51 4300 CONFEDERATE POINT RD 3T HIT AND RUN CRASH - TELESERVE
191013704983 10-13 14:47 9500 REGENCY SQUARE BLVD 1066 CANCEL
191013704970 10-13 14:42 8400 BLANDING BLVD 76 ASSIST OTHER AGENCY
191013704971 10-13 14:41 100 ST JOHNS RIVER 1050 TRAFFIC STOP
191013704969 10-13 14:40 7000 RAMONA BLVD 76 ASSIST OTHER AGENCY
191013704931 10-13 14:40 8000 MERRILL RD 63 DISPUTE
191013704954 10-13 14:39 4400 MONCRIEF RD 63 DISPUTE
191013704950 10-13 14:38 7500 ARLINGTON EXPWY 88J ASSAULT JUST OCCURRED
191013704943 10-13 14:38 3600 BLANDING BLVD 9 THEFT
191013704962 10-13 14:38 100 N LAURA ST 98 THROWING MISSILES
191013704958 10-13 14:36 TALLEYRAND AVE AND E 11TH ST 76 ASSIST OTHER AGENCY
191013704955 10-13 14:30 W BEAVER ST AND SUPERIOR ST 1050 TRAFFIC STOP
191013704936 10-13 14:29 100 W 22ND ST 63 DISPUTE
191013704948 10-13 14:29 11600 LAKE RIDE DR 60 SUICIDE OR ATTEMPT
191013704874 10-13 14:27 11400 TORI LN 3 HIT AND RUN CRASH
191013704938 10-13 14:25 11000 BEACH BLVD 63 DISPUTE
191013704898 10-13 14:24 10900 ATLANTIC BLVD 4 AUTO CRASH
191013704815 10-13 14:23 700 N ST JOHNS BLUFF RD 1066 CANCEL
191013704935 10-13 14:23 4000 S VICTORIA LAKES DR 63 DISPUTE
191013704907 10-13 14:22 8100 ALDERMAN RD 10R VEHICLE THEFT RECOVERY
191013704939 10-13 14:21 3000 JUSTINA RD 5388 ASSAULT INVOLVING INJURY
191013704924 10-13 14:18 8200 W BEAVER ST 19 ANIMAL INVESTIGATION
191013704909 10-13 14:12 5900 FT CAROLINE RD 9 THEFT
191013704919 10-13 14:12 1400 W 27TH ST 13 SUSPICIOUS PERSON
191013704912 10-13 14:09 9300 ATLANTIC BLVD 63 DISPUTE
191013704895 10-13 14:09 11400 BEACH BLVD 63 DISPUTE
191013704918 10-13 14:07 6700 ZIRCON DR 63 DISPUTE
191013704914 10-13 14:06 3700 UNIVERSITY CLUB BLVD 56 JUVENILE COMPLAINT
191013704872 10-13 14:03 300 SMITH ST 63 DISPUTE
191013704911 10-13 14:02 SPRING GLEN RD AND BEACH BLVD 1050 TRAFFIC STOP
191013704746 10-13 14:02 1900 FLAG ST 22 DOMESTIC
191013704719 10-13 14:01 1500 W 26TH ST 63 DISPUTE
191013704905 10-13 14:01 400 E MONROE ST 13 SUSPICIOUS PERSON
191013704904 10-13 13:59 4800 GATE PKWY 4 AUTO CRASH
191013704892 10-13 13:59 5500 PLAYA WAY 13 SUSPICIOUS PERSON
191013704852 10-13 13:59 3100 HARTLEY RD 50 FOUND/ABANDONED PROPERTY
191013704902 10-13 13:57 700 N MAIN ST 63 DISPUTE
191013704893 10-13 13:55 2900 OAK ST 21C BURGLARY CONVEYANCE
191013704886 10-13 13:55 10000 103RD ST 9T THEFT (TELESERVE)
191013704858 10-13 13:54 700 N CHERRY BARK DR 21C BURGLARY CONVEYANCE
191013704668 10-13 13:52 2000 W 45TH ST 22 DOMESTIC
191013704885 10-13 13:47 1700 EL CAMINO RD 27 MENTALLY ILL PERSON
191013704890 10-13 13:46 2600 BLANDING BLVD 76 ASSIST OTHER AGENCY
191013704778 10-13 13:44 8600 BEACH BLVD 64 NOISE COMPLAINT
191013704881 10-13 13:44 1500 S LANE AVE 19 ANIMAL INVESTIGATION
191013704648 10-13 13:43 3600 MONCRIEF RD 9 THEFT
191013704862 10-13 13:43 2400 MAYPORT RD 4 AUTO CRASH
191013704809 10-13 13:42 13200 ATLANTIC BLVD 4 AUTO CRASH
191013704875 10-13 13:42 1600 GRIFLET RD 33 DISCHARGING OF FIREARM
191013704884 10-13 13:42 400 OAKLEAF PLANTATION PKWY 19 ANIMAL INVESTIGATION
191013704721 10-13 13:41 2900 BEACHWOOD BLVD 2288 DOMESTIC DISPUTE WITH/ASSAULT
191013704877 10-13 13:38 1800 GRIFLET RD 33 DISCHARGING OF FIREARM
191013704880 10-13 13:38 S LANE AVE AND AZUL CT 1050 TRAFFIC STOP
191013704878 10-13 13:37 100 ST JOHNS RIVER 1050 TRAFFIC STOP
191013704871 10-13 13:37 9700 CROSSHILL BLVD 9 THEFT
191013704833 10-13 13:37 9500 BAYMEADOWS RD 63 DISPUTE
191013704876 10-13 13:37 ATLANTIC BLVD AND MARKETPLACE DR 16 ROAD OBSTRUCTION
191013704870 10-13 13:36 11700 SAN JOSE BLVD 61 FIGHT
191013704873 10-13 13:36 SAN JOSE BLVD AND MANDARIN RD 63 DISPUTE
191013704867 10-13 13:36 700 STANDISH PL 37 UNVERIFIED 911 CALL
191013704841 10-13 13:35 9800 HUTCHINSON PARK DR 86T LOST PROPERTY (TELESERVE)
191013704869 10-13 13:34 200 DUVAL STATION RD 33 DISCHARGING OF FIREARM
191013704868 10-13 13:33 100 ST JOHNS RIVER 1050 TRAFFIC STOP
191013704855 10-13 13:32 8400 SANTANA CT 87 DAMAGED PROPERTY
191013704865 10-13 13:32 500 VICTORIA ST 54 ILLEGALLY PARKED CAR
191013704861 10-13 13:31 12700 E BURNING TREE LN 29 WIRE DOWN
191013704707 10-13 13:29 8100 GALVESTON AVE 2288 DOMESTIC DISPUTE WITH/ASSAULT
191013704859 10-13 13:27 500 VICTORIA ST 54 ILLEGALLY PARKED CAR
191013704843 10-13 13:26 8000 BAYBERRY RD 1066 CANCEL
191013704806 10-13 13:25 1400 MENLO AVE 63 DISPUTE
191013704856 10-13 13:24 500 VICTORIA ST 54 ILLEGALLY PARKED CAR
191013704810 10-13 13:22 OLD ST AUGUSTINE RD AND N I295 EXPWY 4 AUTO CRASH
191013704711 10-13 13:22 N MAIN ST AND W 21ST ST 88 ASSAULT
191013704850 10-13 13:20 500 VICTORIA ST 54 ILLEGALLY PARKED CAR
191013704654 10-13 13:20 2000 HODGES BLVD 10 VEHICLE THEFT
191013704848 10-13 13:20 3100 SEDONA TRL 21R BURGLARY RESIDENCE
191013704849 10-13 13:19 100 ST JOHNS RIVER 1050 TRAFFIC STOP
191013704835 10-13 13:17 2000 3RD ST 1066 CANCEL
191013704844 10-13 13:15 500 VICTORIA ST 54 ILLEGALLY PARKED CAR
191013704836 10-13 13:12 HOGAN/BELFORT 96 ASSIST MOTORIST
191013704834 10-13 13:12 9500 ARLINGTON EXPWY 9 THEFT
191013704777 10-13 13:11 200 E STATE ST 4 AUTO CRASH
191013704828 10-13 13:09 7100 S OLD KINGS RD 27 MENTALLY ILL PERSON
191013704831 10-13 13:08 100 ST JOHNS RIVER 1050 TRAFFIC STOP
191013704826 10-13 13:07 8900 ADAMS WALK DR 60 SUICIDE OR ATTEMPT
191013704546 10-13 13:06 200 E COAST LINE DR 63 DISPUTE
191013704825 10-13 13:04 S I95 EXPWY AND PARK ST 16 ROAD OBSTRUCTION
191013704827 10-13 13:03 N OLD MIDDLEBURG RD AND MEMORIAL PARK RD 63 DISPUTE
191013704816 10-13 13:03 CATOMA ST AND TIMUQUANA RD 4 AUTO CRASH
191013704764 10-13 13:02 6700 MANOTAK OAKS DR 21C BURGLARY CONVEYANCE
191013704817 10-13 13:01 S I295 EXPWY AND ROOSEVELT BLVD 16 ROAD OBSTRUCTION
191013704822 10-13 13:00 ATLANTIC BLVD AND SOUTHSIDE BLVD 1050 TRAFFIC STOP
191013704792 10-13 13:00 4600 ATTLEBORO ST 22 DOMESTIC
191013704820 10-13 12:59 11000 KER-DEL RD 22 DOMESTIC
191013704803 10-13 12:55 7000 N MAIN ST 2288 DOMESTIC DISPUTE WITH/ASSAULT
191013704761 10-13 12:54 1100 WOODRUFF AVE 63 DISPUTE
191013704805 10-13 12:53 E I10 EXPWY AND S US 301 HWY 13 SUSPICIOUS PERSON
191013704807 10-13 12:52 PECAN PARK RD AND N MAIN ST 16 ROAD OBSTRUCTION
191013704784 10-13 12:52 SAN JOSE BLVD AND ORANGE PICKER RD 4 AUTO CRASH
191013704680 10-13 12:50 PICKETTVILLE RD AND COMMONWEALTH AVE 13 SUSPICIOUS PERSON
191013704756 10-13 12:48 600 E 56TH ST 22 DOMESTIC
191013704800 10-13 12:45 GATOR BOWL BLVD AND TALLEYRAND AVE 1050 TRAFFIC STOP
191013704798 10-13 12:44 E DUVAL ST AND A PHILIP RANDOLPH BLVD 1050 TRAFFIC STOP
191013704795 10-13 12:43 WILSON BLVD AND N OLD MIDDLEBURG RD 63 DISPUTE
191013704780 10-13 12:43 NOLAN ST AND SUMMER ST 33 DISCHARGING OF FIREARM
191013704796 10-13 12:43 ATLANTIC BLVD AND BARTRAM RD 1050 TRAFFIC STOP
191013704762 10-13 12:42 300 E 48TH ST 13 SUSPICIOUS PERSON
191013704766 10-13 12:42 MARTIN LUTHER KING JR PKWY AND N PEARL ST 16 ROAD OBSTRUCTION
191013704794 10-13 12:41 6800 NORMANDY BLVD 9 THEFT
191013704768 10-13 12:39 900 FOX CHAPEL LN 1066 CANCEL
191013704788 10-13 12:39 COLLINS RD AND RAMPART RD 4 AUTO CRASH
191013704725 10-13 12:38 5800 EDENFIELD RD 14C VANDALISM CONVEYANCE
191013704787 10-13 12:36 S LANE AVE AND RAMONA BLVD 76 ASSIST OTHER AGENCY
191013704786 10-13 12:35 500 VICTORIA ST 54 ILLEGALLY PARKED CAR
191013704781 10-13 12:33 600 W 8TH ST 9 THEFT
191013704758 10-13 12:33 4500 PRINCESS LABETH CT 22 DOMESTIC
191013704759 10-13 12:32 7500 GLENN ABBEY PL 50 FOUND/ABANDONED PROPERTY
191013704724 10-13 12:32 E I10 EXPWY AND CASSAT AVE 96 ASSIST MOTORIST
191013704771 10-13 12:32 2100 SPRING PARK RD 10 VEHICLE THEFT
191013704751 10-13 12:31 13400 BEACH BLVD 5582 HOLDING ONE FOR SHOPLIFTING
191013704663 10-13 12:30 10900 BEACH BLVD 2 63 DISPUTE IMPAIRED/INTOXICATED
191013704773 10-13 12:30 13900 FAIR PINE LN 63 DISPUTE
191013704772 10-13 12:29 LOT A 17 PERSON DOWN OR SICK
191013704741 10-13 12:29 E UNION ST AND E STATE ST 4 AUTO CRASH
191013704769 10-13 12:29 1000 GATOR BOWL BLVD 1050 TRAFFIC STOP
191013704763 10-13 12:27 8900 NORMANDY BLVD 10J VEHICLE THEFT JUST OCCURRED
191013704653 10-13 12:26 12900 OXFORD CROSSING DR 63 DISPUTE
191013704737 10-13 12:25 PHILIPS HWY AND OLD ST AUGUSTINE RD 12 RECKLESS DRIVER
191013704754 10-13 12:25 7000 N MAIN ST 2288 DOMESTIC DISPUTE WITH/ASSAULT
191013704753 10-13 12:23 7000 N MAIN ST 37 UNVERIFIED 911 CALL
191013704748 10-13 12:23 4600 N KEN KNIGHT DR 10 VEHICLE THEFT
191013704757 10-13 12:23 100 ST JOHNS RIVER 1050 TRAFFIC STOP
191013704699 10-13 12:20 8200 GARDEN ST 22 DOMESTIC
191013704750 10-13 12:19 11000 KER-DEL RD 63 DISPUTE
191013704747 10-13 12:17 1100 E 21ST ST 1050 TRAFFIC STOP
191013704744 10-13 12:16 6900 N SONORA DR 22 DOMESTIC
191013704602 10-13 12:15 3600 S KERNAN BLVD 63 DISPUTE
191013704745 10-13 12:15 GATOR BOWL BLVD AND TALLEYRAND AVE 1050 TRAFFIC STOP
191013704738 10-13 12:15 400 LAURINA ST 60 SUICIDE OR ATTEMPT
191013704728 10-13 12:14 3300 LOWELL AVE 63 DISPUTE
191013704692 10-13 12:12 1500 S LANE AVE 4 AUTO CRASH
191013704681 10-13 12:12 3700 N MAIN ST 63 DISPUTE
191013704713 10-13 12:12 7000 SNOWY CANYON DR 3T HIT AND RUN CRASH - TELESERVE
191013704739 10-13 12:11 W UNION ST AND N BROAD ST 4 AUTO CRASH
191013704687 10-13 12:10 118TH ST AND E LAMAR DR 73 DRUG INVESTIGATION
191013704729 10-13 12:10 10500 W BALMORAL CIR 37 UNVERIFIED 911 CALL
191013704735 10-13 12:08 HODGES BLVD AND DANFORTH DR 4 53 TRAFFIC CRASH PERSON INJURED
191013704671 10-13 12:08 4400 ROOSEVELT BLVD 22 DOMESTIC
191013704626 10-13 12:07 8500 HOWELL DR 22 DOMESTIC
191013704612 10-13 12:07 5300 BOILARD DR 3 HIT AND RUN CRASH
191013704732 10-13 12:06 ATLANTIC BLVD AND S ST JOHNS BLUFF RD 76 ASSIST OTHER AGENCY
191013704733 10-13 12:05 LOT N 4 AUTO CRASH
191013704672 10-13 12:05 100 CENTURY 21 DR 21C BURGLARY CONVEYANCE
191013704706 10-13 12:05 BRADFORD ST AND LABELLE ST 22 DOMESTIC
191013704716 10-13 12:04 ATLANTIC BLVD AND S I295 EXPWY 16 ROAD OBSTRUCTION
191013704702 10-13 12:03 2100 W 17TH ST 0 63 ARMED DISPUTE
191013704720 10-13 12:00 5200 E LA VENTURA DR 22 DOMESTIC
191013704592 10-13 11:59 300 E 2ND ST 21C BURGLARY CONVEYANCE
191013704645 10-13 11:59 6100 E MERCER CIR 63 DISPUTE
191013704700 10-13 11:59 4200 LAKESIDE DR 9T THEFT (TELESERVE)
191013704662 10-13 11:58 1600 STOCKTON ST 9T THEFT (TELESERVE)
191013704600 10-13 11:58 8700 NEWTON RD 22 DOMESTIC
191013704715 10-13 11:58 MINNIE ST AND W UNION ST 88P ASSAULT IN PROGRESS
191013704718 10-13 11:57 1600 OTIS RD 13 SUSPICIOUS PERSON
191013704712 10-13 11:55 E DUVAL ST AND A PHILIP RANDOLPH BLVD 1050 TRAFFIC STOP
191013704652 10-13 11:53 GRAND AVE AND MCGIRTS BLVD 54 ILLEGALLY PARKED CAR
191013704705 10-13 11:53 9300 ALMA ST 76 ASSIST OTHER AGENCY
191013704701 10-13 11:50 STARRATT RD AND NIPPER LN 1050 TRAFFIC STOP
191013704696 10-13 11:49 ARGYLE FOREST BLVD AND MEADOW BEND DR 63 DISPUTE
191013704697 10-13 11:48 LORETTO RD AND GWYNFORD LN 96 ASSIST MOTORIST
191013704693 10-13 11:46 ARGYLE FOREST BLVD AND RAMPART RD 16 ROAD OBSTRUCTION
191013704640 10-13 11:46 1400 HENDRICKS AVE 63 DISPUTE
191013704629 10-13 11:42 N MARKET ST AND CONFEDERATE ST 16 ROAD OBSTRUCTION
191013704683 10-13 11:41 5800 EDENFIELD RD 22 DOMESTIC
191013704679 10-13 11:37 14300 BONEY 1050 TRAFFIC STOP
191013704664 10-13 11:37 12800 SAN JOSE BLVD 54 ILLEGALLY PARKED CAR
191013704591 10-13 11:36 11700 SAN JOSE BLVD 11 ABANDONED VEHICLE
191013704218 10-13 11:36 4300 CONFEDERATE POINT RD 3T HIT AND RUN CRASH - TELESERVE
191013704675 10-13 11:35 1500 W 21ST ST 2288 DOMESTIC DISPUTE WITH/ASSAULT
191013704627 10-13 11:34 10700 HAPPY VALE RD 63 DISPUTE
191013704586 10-13 11:33 8600 PHILIPS HWY 19 ANIMAL INVESTIGATION
191013704625 10-13 11:33 BARTRAM PARK BLVD AND OLD ST AUGUSTINE RD 4 AUTO CRASH
191013704655 10-13 11:30 13400 GRAN BAY PKWY 2288 DOMESTIC DISPUTE WITH/ASSAULT
191013704651 10-13 11:29 5400 COLLINS RD 22 DOMESTIC
191013704658 10-13 11:21 MARSH ST AND E BAY ST 1050 TRAFFIC STOP
191013704657 10-13 11:20 CATHERINE ST AND E BAY ST 1050 TRAFFIC STOP
191013704623 10-13 11:19 MERRILL RD AND S I295 EXPWY 9 THEFT
191013704641 10-13 11:16 8600 JULIA MARIE CIR 22 DOMESTIC
191013704642 10-13 11:14 N I295 EXPWY AND ROOSEVELT BLVD 16 ROAD OBSTRUCTION
191013704644 10-13 11:13 12000 SAN JOSE 1066 CANCEL
191013704581 10-13 11:11 3800 GALICIA RD 63 DISPUTE
191013704637 10-13 11:10 N REGENCY SQUARE BLVD AND SOUTHSIDE CONNECTOR BLVD 1050 TRAFFIC STOP
191013704603 10-13 11:10 100 N BUCKMAN BRG 13 SUSPICIOUS PERSON
191013704634 10-13 11:08 LAFAYETTE ST AND E ADAMS ST 1050 TRAFFIC STOP
191013704624 10-13 11:08 2400 CORTEZ RD 37 UNVERIFIED 911 CALL
191013704633 10-13 11:08 13200 DUNN CREEK RD 1050 TRAFFIC STOP
191013704630 10-13 11:07 7900 N CONGAREE CT 1066 CANCEL
191013704632 10-13 11:07 6800 WILSON BLVD 1050 TRAFFIC STOP
191013704631 10-13 11:07 8800 BEACH BLVD 1066 CANCEL
191013704616 10-13 11:06 7200 W KEN KNIGHT DR 13 SUSPICIOUS PERSON
191013704548 10-13 10:57 800 ALDERMAN RD 22 DOMESTIC
191013704621 10-13 10:56 100 ST JOHNS RIVER 1050 TRAFFIC STOP
191013704613 10-13 10:55 9000 NEW KINGS RD 63 DISPUTE
191013704619 10-13 10:55 MELSON AVE AND LOWELL AVE 4 53 TRAFFIC CRASH PERSON INJURED
191013704576 10-13 10:51 7000 COLLINS RD 68 CON GAME/FLIM FLAM
191013704614 10-13 10:51 S I295 EXPWY AND ROOSEVELT BLVD 16 ROAD OBSTRUCTION
191013704590 10-13 10:49 5500 N UNIVERSITY CLUB BLVD 9 THEFT
191013704604 10-13 10:48 BAYMEADOWS RD AND SOUTHSIDE BLVD 91 TRAFFIC LIGHT/RR CROSSING MALFUNCTION
191013704609 10-13 10:48 100 ST JOHNS RIVER 1050 TRAFFIC STOP
191013704606 10-13 10:46 3900 SPRING GLEN RD 2 63 DISPUTE IMPAIRED/INTOXICATED
191013704587 10-13 10:46 5200 POLAN LN 0 63 ARMED DISPUTE
191013704608 10-13 10:45 6800 NORMANDY BLVD 9P THEFT IN PROGRESS
191013704605 10-13 10:45 8400 BLANDING BLVD 13 SUSPICIOUS PERSON
191013704598 10-13 10:44 6900 LOVES DR 0 63 ARMED DISPUTE
191013704599 10-13 10:44 S I295 EXPWY AND J TURNER BUTLER BLVD 96 ASSIST MOTORIST
191013704575 10-13 10:41 6400 103RD ST 63 DISPUTE
191013704574 10-13 10:41 10500 ARENDAL RD 63 DISPUTE
191013704595 10-13 10:40 2100 N ALLANDALE CIR 21C BURGLARY CONVEYANCE
191013704579 10-13 10:39 5400 BLANDING BLVD 4 AUTO CRASH
191013704594 10-13 10:37 1400 GATOR BOWL BLVD 1050 TRAFFIC STOP
191013704473 10-13 10:35 13300 ATLANTIC BLVD 3 HIT AND RUN CRASH
191013704557 10-13 10:33 6400 NEW KINGS RD 63 DISPUTE
191013704512 10-13 10:32 10000 SKINNER LAKE DR 14C VANDALISM CONVEYANCE
191013704519 10-13 10:32 1100 CALIENTE DR 22 DOMESTIC
191013704532 10-13 10:32 14800 NORMANDY 4 AUTO CRASH
191013704585 10-13 10:30 COMMONWEALTH AVE AND WEST PALM AVE 1050 TRAFFIC STOP
191013704559 10-13 10:28 2100 KINGS RD 9J THEFT JUST OCCURRED
191013704578 10-13 10:26 12000 HOUSTON AVE 33 DISCHARGING OF FIREARM
191013704567 10-13 10:21 6500 RAMONA BLVD 63 DISPUTE
191013704569 10-13 10:21 3500 W TIARA WAY 22 DOMESTIC
191013704565 10-13 10:20 PHILIPS HWY AND FREEDOM CROSSING TRL 19 ANIMAL INVESTIGATION
191013704572 10-13 10:19 500 VICTORIA ST 54 ILLEGALLY PARKED CAR
191013704568 10-13 10:17 N EDGEWOOD AVE AND COMMONWEALTH AVE 1050 TRAFFIC STOP
191013704561 10-13 10:17 12800 E HAVERFORD RD 63 DISPUTE
191013704560 10-13 10:15 E 21ST ST AND FRANKLIN ST 1050 TRAFFIC STOP
191013704540 10-13 10:14 4600 SALISBURY RD 37 UNVERIFIED 911 CALL
191013704409 10-13 10:12 1500 SWIFT ST 21C BURGLARY CONVEYANCE
191013704554 10-13 10:12 7000 N MAIN ST 37 UNVERIFIED 911 CALL
191013704556 10-13 10:12 300 GATOR BOWL BLVD 11 ABANDONED VEHICLE
191013704534 10-13 10:12 7200 POWERS AVE 21C BURGLARY CONVEYANCE
191013704549 10-13 10:11 S OLD KINGS RD AND PLAZA GATE LN 4 AUTO CRASH
191013704545 10-13 10:10 9400 THORN GLEN RD 2288 DOMESTIC DISPUTE WITH/ASSAULT
191013704552 10-13 10:09 FAIRAX/1ST 1050 TRAFFIC STOP
191013704547 10-13 10:08 HODGES BLVD AND BENTWATER DR 4 53 TRAFFIC CRASH PERSON INJURED
191013704544 10-13 10:05 D110 1050 TRAFFIC STOP
191013704478 10-13 10:04 11200 S HARBOUR WOODS RD 21C BURGLARY CONVEYANCE
191013704528 10-13 10:02 6800 NORMANDY BLVD 27 MENTALLY ILL PERSON
191013704539 10-13 10:01 PHOENIX AVE AND E 10TH ST 1050 TRAFFIC STOP
191013704505 10-13 10:01 4400 HODGES BLVD 4 AUTO CRASH
191013704536 10-13 10:00 4400 HODGES BLVD 4 AUTO CRASH
191013704530 10-13 09:57 1300 TRADEPORT DR 13 SUSPICIOUS PERSON
191013704526 10-13 09:55 100 N ACOSTA BRG 1050 TRAFFIC STOP
191013704520 10-13 09:55 6800 ARQUES RD 11 ABANDONED VEHICLE
191013704515 10-13 09:53 4000 JONES BRANCH BLVD 9J THEFT JUST OCCURRED
191013704518 10-13 09:51 200 W UNION ST 76 ASSIST OTHER AGENCY
191013704513 10-13 09:48 SEABOARD AVE AND TIMUQUANA RD 73 DRUG INVESTIGATION
191013704511 10-13 09:47 8400 W GATE PKWY 50 FOUND/ABANDONED PROPERTY
191013704481 10-13 09:47 8200 ALDERMAN RD 22 DOMESTIC
191013704468 10-13 09:41 6200 105TH ST 2288 DOMESTIC DISPUTE WITH/ASSAULT
191013704507 10-13 09:39 8800 BEACH BLVD 4 53 TRAFFIC CRASH PERSON INJURED
191013704502 10-13 09:34 N I95 EXPWY AND PHILIPS HWY 1050 TRAFFIC STOP
191013704499 10-13 09:31 14200 BEACH BLVD 13 SUSPICIOUS PERSON
191013704496 10-13 09:28 1500 E 12TH ST 3388 DISCHARGING FIREARM AT PERSON
191013704460 10-13 09:28 200 CHERRY RIDGE DR 63 DISPUTE
191013704451 10-13 09:28 9500 CROSSHILL BLVD 2 63 DISPUTE IMPAIRED/INTOXICATED
191013704480 10-13 09:26 1000 MELSON AVE 9T THEFT (TELESERVE)
191013704486 10-13 09:26 2900 BURKE ST 13 SUSPICIOUS PERSON
191013704466 10-13 09:24 1200 BROOKWOOD FOREST BLVD 63 DISPUTE
191013704484 10-13 09:23 2500 NEW BERLIN RD 1066 CANCEL
191013704490 10-13 09:23 2000 KINGS RD 29 WIRE DOWN
191013704488 10-13 09:18 3900 KNOTT GRASS RD 76 ASSIST OTHER AGENCY
191013704479 10-13 09:14 9400 ATLANTIC BLVD 50 FOUND/ABANDONED PROPERTY
191013704472 10-13 09:10 500 ACME ST 14C VANDALISM CONVEYANCE
191013704474 10-13 09:09 100 E BEAVER ST 13 SUSPICIOUS PERSON
191013704470 10-13 09:07 100 W UNION ST 13 SUSPICIOUS PERSON
191013704408 10-13 09:06 6200 ARLINGTON EXPWY 63 DISPUTE
191013704463 10-13 09:06 3300 MONCRIEF RD 63 DISPUTE
191013704449 10-13 09:05 7800 W CAXTON CIR 11 ABANDONED VEHICLE
191013704453 10-13 09:03 8500 HOWELL DR 63 DISPUTE
191013704424 10-13 09:03 3800 E RANCHO RD 64 NOISE COMPLAINT
191013704446 10-13 08:58 2200 DELLWOOD AVE 63 DISPUTE
191013704465 10-13 08:57 6300 W PENNANT DR 8 27 MISSING MENTALLY ILL
191013704464 10-13 08:56 WAKE FOREST AVE AND DUNN AVE 76 ASSIST OTHER AGENCY
191013704457 10-13 08:56 1700 W 10TH ST 22 DOMESTIC
191013704428 10-13 08:51 13000 GRAN BAY PKWY 95ID IDENTITY THEFT
191013704450 10-13 08:44 100 W STATE ST 13 SUSPICIOUS PERSON
191013704445 10-13 08:42 400 W 61ST ST 10R VEHICLE THEFT RECOVERY
191013704438 10-13 08:42 W ASHLEY ST AND N JULIA ST 77 WELL BEING CHECK
191013704444 10-13 08:39 100 E BEAVER ST 13 SUSPICIOUS PERSON
191013704434 10-13 08:37 8000 WAXWING AVE 63 DISPUTE
191013704439 10-13 08:33 1200 LABELLE ST 76 ASSIST OTHER AGENCY
191013704406 10-13 08:29 12000 BEACH BLVD 3 HIT AND RUN CRASH
191013704388 10-13 08:28 7200 ARLINGTON EXPWY 27 MENTALLY ILL PERSON
191013704435 10-13 08:25 9800 W PADDLEWHEEL DR 2288 DOMESTIC DISPUTE WITH/ASSAULT
191013704436 10-13 08:25 8300 HIGHFIELD AVE 1050 TRAFFIC STOP
191013704399 10-13 08:21 400 E BAY ST 63 DISPUTE
191013704426 10-13 08:21 1100 PAYNE CT 63 DISPUTE
191013704431 10-13 08:19 100 W UNION ST 13 SUSPICIOUS PERSON
191013704430 10-13 08:19 300 N. MARKET ST 13 SUSPICIOUS PERSON
191013704425 10-13 08:18 600 W ASHLEY ST 60 SUICIDE OR ATTEMPT
191013704429 10-13 08:18 N MAIN ST AND MARTIN LUTHER KING JR PKWY 1050 TRAFFIC STOP
191013704427 10-13 08:16 ACME ST AND ALTON AVE 13 SUSPICIOUS PERSON
191013704420 10-13 08:11 800 PRUDENTIAL DR 9 THEFT
191013704422 10-13 08:11 5600 EDENFIELD RD 1066 CANCEL
191013704421 10-13 08:09 E 19TH ST AND N MAIN ST 88P ASSAULT IN PROGRESS
191013704419 10-13 08:07 300 MARKET ST 13 SUSPICIOUS PERSON
191013704413 10-13 08:04 10000 N GATE PKWY 22 DOMESTIC
191013704414 10-13 08:02 N MORGANA RD AND ROGERO RD 1050 TRAFFIC STOP
191013704410 10-13 08:00 W 22ND ST AND SILVER ST 13 SUSPICIOUS PERSON
191013704405 10-13 07:54 700 N MAIN ST 13 SUSPICIOUS PERSON
191013704401 10-13 07:54 7600 GATE PKWY 27 MENTALLY ILL PERSON
191013704402 10-13 07:54 9300 103RD ST 7 DEAD PERSON
191013704395 10-13 07:54 10300 E DOCKSIDER DR 3 HIT AND RUN CRASH
191013704400 10-13 07:53 900 W ADAMS ST 23I ROBBERY INDIVIDUAL
191013704394 10-13 07:48 5200 W MONCRIEF RD 68 CON GAME/FLIM FLAM
191013704393 10-13 07:48 LONE STAR RD AND BELLEMEADE BLVD 1050 TRAFFIC STOP
191013704392 10-13 07:48 BLANDING BLVD AND SHIRLEY AVE 4 53 TRAFFIC CRASH PERSON INJURED
191013704389 10-13 07:46 W 5TH ST AND BOULEVARD 27 MENTALLY ILL PERSON
191013704390 10-13 07:44 W 10TH ST AND N MYRTLE AVE 1050 TRAFFIC STOP
191013704384 10-13 07:43 1500 W 26TH ST 22 DOMESTIC
191013704372 10-13 07:35 900 CEDAR ST 22 DOMESTIC
191013704371 10-13 07:32 2300 PHOENIX AVE 88 ASSAULT
191013704376 10-13 07:32 2000 FOREST HILLS RD 63 DISPUTE
191013704387 10-13 07:32 MELVIN RD AND FIRESTONE RD 12 RECKLESS DRIVER
191013704385 10-13 07:30 103RD ST AND S I295 EXPWY 4 53 TRAFFIC CRASH PERSON INJURED
191013704383 10-13 07:28 500 BULLS BAY HWY 13 SUSPICIOUS PERSON
191013704382 10-13 07:24 600 W UNION ST 76 ASSIST OTHER AGENCY
191013704380 10-13 07:22 500 E BAY ST 5388 ASSAULT INVOLVING INJURY
191013704374 10-13 07:22 3200 TAMAYA BLVD 49 REPORT TO HOSPITAL
191013704373 10-13 07:17 3700 E WEXFORD HOLLOW RD 3 HIT AND RUN CRASH
191013704367 10-13 07:17 5600 EDENFIELD RD 21R BURGLARY RESIDENCE
191013704366 10-13 07:17 5400 RIVERBREEZE CT 11 ABANDONED VEHICLE
191013704352 10-13 07:12 300 CARAVAN CIR 21RJ BURGLARY RESIDENCE JUST OCCURRED
191013704359 10-13 07:04 N MAIN ST AND E 50TH ST 16 ROAD OBSTRUCTION
191013704362 10-13 07:03 11300 E LAKE MANDARIN CIR 8 MISSING PERSON
191013704364 10-13 07:01 COMMONWEALTH AVE AND N ELLIS RD 1050 TRAFFIC STOP
191013704363 10-13 07:01 E BAY ST AND S MARKET ST 27 MENTALLY ILL PERSON
191013704361 10-13 06:58 N I95 EXPWY AND MARTIN LUTHER KING JR RP 1050 TRAFFIC STOP
191013704343 10-13 06:57 7400 SAN JOSE BLVD 64 NOISE COMPLAINT
191013704351 10-13 06:50 200 E BAY ST 63 DISPUTE
191013704340 10-13 06:49 S NEWNAN ST AND E INDEPENDENT DR 13 SUSPICIOUS PERSON
191013704358 10-13 06:48 N EDGEWOOD AVE AND COMMONWEALTH AVE 13 SUSPICIOUS PERSON
191013704357 10-13 06:47 N I295 EXPWY AND PHILIPS HWY 13 SUSPICIOUS PERSON
191013704349 10-13 06:46 3000 CALDER DR 10J VEHICLE THEFT JUST OCCURRED
191013704347 10-13 06:46 4300 S PLAZA GATE LN 63 DISPUTE
191013704355 10-13 06:46 5400 EULACE RD 63 DISPUTE
191013704353 10-13 06:46 400 PECAN PARK RD 4 AUTO CRASH
191013704350 10-13 06:39 6700 103RD ST 13 SUSPICIOUS PERSON
191013704337 10-13 06:35 7500 POWERS AVE 2 63 DISPUTE IMPAIRED/INTOXICATED
191013704339 10-13 06:22 8200 S OLD MIDDLEBURG RD 68 CON GAME/FLIM FLAM
191013704338 10-13 06:21 CATHERINE ST AND E BAY ST 13 SUSPICIOUS PERSON
191013704334 10-13 06:12 5200 ATLANTIC BLVD 63 DISPUTE
191013704335 10-13 06:11 6200 S BARNES RD 60 SUICIDE OR ATTEMPT
191013704332 10-13 06:05 VICTORIA PARK RD AND BOWDEN RD 21CJ BURGLARY CONVEYANCE JUST OCCURRED
191013704328 10-13 05:43 2600 ABERCORN RD 64 NOISE COMPLAINT
191013704311 10-13 05:35 1500 PEARCE ST 13 SUSPICIOUS PERSON
191013704312 10-13 05:35 4400 SHIRLEY AVE 13 SUSPICIOUS PERSON
191013704323 10-13 05:35 BARNETT ST AND W 8TH ST 64 NOISE COMPLAINT
191013704318 10-13 05:26 100 W 22ND ST 6388 DISPUTE WITH ASSAULT
191013704322 10-13 05:19 200 PEREGRINE CT 26EB PERSON WITH EXTREME BEHAVIOR
191013704316 10-13 05:10 BAYMEADOWS RD AND S I95 EXPWY 1050 TRAFFIC STOP
191013704314 10-13 05:08 N MAIN ST AND W 21ST ST 10 VEHICLE THEFT
191013704313 10-13 05:07 S I95 EXPWY AND EMERSON ST 96 ASSIST MOTORIST
191013704307 10-13 05:00 BAYMEADOWS RD AND PROMINENCE PKWY 1050 TRAFFIC STOP
191013704302 10-13 04:49 S I95 EXPWY AND E I10 EXPWY 1050 TRAFFIC STOP
191013704298 10-13 04:43 5400 HICKSON RD 64 NOISE COMPLAINT
191013704297 10-13 04:42 3000 PURDOM DR 4 AUTO CRASH
191013704289 10-13 04:33 1900 SPIRES AVE 13 SUSPICIOUS PERSON
191013704291 10-13 04:32 7900 MERRILL RD 12 RECKLESS DRIVER
191013704279 10-13 04:30 6000 YOUNGERMAN CIR 22 DOMESTIC
191013704292 10-13 04:29 2600 ABERCORN RD 64 NOISE COMPLAINT
191013704272 10-13 04:29 7800 LE MANS DR 2288 DOMESTIC DISPUTE WITH/ASSAULT
191013704280 10-13 04:24 600 N OCEAN ST 64 NOISE COMPLAINT
191013704293 10-13 04:24 100 E 54TH ST 76 ASSIST OTHER AGENCY
191013704288 10-13 04:22 100 TALLULAH AVE 2288 DOMESTIC DISPUTE WITH/ASSAULT
191013704286 10-13 04:18 GOLFAIR BLVD AND MONCRIEF RD 1050 TRAFFIC STOP
191013704277 10-13 04:13 8900 ADAMS WALK DR 22 DOMESTIC
191013704284 10-13 04:13 MONCRIEF RD AND GEORGE R KERNS BLVD 1050 TRAFFIC STOP
191013704283 10-13 04:11 600 STOCKTON ST 63 DISPUTE
191013704274 10-13 04:09 1800 FAIRFAX ST 0 63 ARMED DISPUTE
191013704281 10-13 04:08 W 34TH ST AND MONCRIEF RD 1050 TRAFFIC STOP
191013704278 10-13 04:04 4600 ALPHA AVE 63 DISPUTE
191013704223 10-13 04:02 8900 INDIA AVE 21R BURGLARY RESIDENCE
191013704276 10-13 04:01 3500 N CENTERHILL DR 76 ASSIST OTHER AGENCY